Bedford, Massachusetts, United States (01730)
Lat: 42.49N, Lon: 71.28W
Wx Zone: MAZ005
Local Info
Past Weather Observations for Sunday, August 24, 2014

NOTE: This archive is for the closest National Weather Service station to Bedford. Information may differ from the station used for current weather conditions.

Click here for Long-term Archive

Time Weather Temperature Dewpoint Humidity Pressure Winds Precip Visibility
23:56
Clear
59°F / 15°C 57°F / 14°C 94% 30.12 in
(1020 mb)
Calm - 10SM
22:56
Clear
61°F / 16°C 59°F / 15°C 94% 30.12 in
(1020 mb)
Calm - 10SM
21:56
Clear
61°F / 16°C 61°F / 16°C 100% 30.12 in
(1020 mb)
Calm - 10SM
20:56
Clear
63°F / 17°C 61°F / 16°C 94% 30.12 in
(1020 mb)
Calm - 10SM
19:56
Clear
64°F / 18°C 63°F / 17°C 94% 30.12 in
(1020 mb)
Calm - 10SM
18:56
Partly Cloudy
68°F / 20°C 61°F / 16°C 78% 30.09 in
(1019 mb)
Calm - 10SM
17:56
Clear
73°F / 23°C 59°F / 15°C 61% 30.09 in
(1019 mb)
SW 3.5 mph
(SW 6 kph)
- 10SM
16:56
Clear
77°F / 25°C 57°F / 14°C 51% 30.09 in
(1019 mb)
ENE 5.8 mph
(ENE 9 kph)
- 10SM
15:56
Partly Cloudy
79°F / 26°C 55°F / 13°C 45% 30.09 in
(1019 mb)
NE 9.2 mph
(NE 15 kph)
- 10SM
14:56
Partly Cloudy
77°F / 25°C 55°F / 13°C 47% 30.09 in
(1019 mb)
NE 11.5 mph
(NE 19 kph)
- 10SM
13:56
Partly Cloudy
79°F / 26°C 55°F / 13°C 45% 30.12 in
(1020 mb)
NE 4.6 mph
(NE 7 kph)
- 10SM
12:56
Partly Cloudy
79°F / 26°C 55°F / 13°C 45% 30.12 in
(1020 mb)
NE 4.6 mph
(NE 7 kph)
- 10SM
11:56
Partly Cloudy
77°F / 25°C 55°F / 13°C 47% 30.12 in
(1020 mb)
NE 8.1 mph
(NE 13 kph)
- 10SM
10:56
Partly Cloudy
75°F / 24°C 57°F / 14°C 54% 30.12 in
(1020 mb)
Variable 6.9 mph
(Variable 11 kph)
- 10SM
09:56
Clear
73°F / 23°C 57°F / 14°C 57% 30.15 in
(1021 mb)
Variable 3.5 mph
(Variable 6 kph)
- 10SM
08:56
Clear
70°F / 21°C 57°F / 14°C 64% 30.15 in
(1021 mb)
NNW 4.6 mph
(NNW 7 kph)
- 10SM
07:56
Clear
64°F / 18°C 57°F / 14°C 78% 30.15 in
(1021 mb)
Calm - 10SM
06:56
Clear
59°F / 15°C 57°F / 14°C 94% 30.15 in
(1021 mb)
Calm - 10SM
05:56
Clear
54°F / 12°C 54°F / 12°C 100% 30.12 in
(1020 mb)
Calm - 10SM
04:56
Clear
Fog And Mist
52°F / 11°C 52°F / 11°C 100% 30.12 in
(1020 mb)
Calm - 4SM
03:56
Mostly Cloudy
54°F / 12°C 54°F / 12°C 100% 30.12 in
(1020 mb)
Calm - 10SM
02:56
Partly Cloudy
54°F / 12°C 54°F / 12°C 100% 30.12 in
(1020 mb)
Calm - 10SM
01:56
Clear
55°F / 13°C 54°F / 12°C 94% 30.12 in
(1020 mb)
Calm - 10SM
00:56
Overcast
55°F / 13°C 55°F / 13°C 100% 30.12 in
(1020 mb)
Calm - 10SM
Time Weather Temperature Dewpoint Humidity Pressure Winds Precip Visibility


Weather for websites

WeatherForYou.com, LLC is not responsible for any damages or problems caused by this service. Current weather conditions are obtained from the closest station including government and personal stations which may have varying degrees of accuracy. Weather forecasts are derived from the NOAA NDFD. Like all things, this site belongs to Jesus Christ... He just trusts me to maintain it. If you have any questions or comments email webmaster@weatherforyou.com

Copyright © 2014, WeatherForYou.com LLC. All rights reserved.